[[{"header":{"parameterUnit":"m.s-1","parameterCategory":1,"la1":30.2991,"la2":30.254,"lo1":-89.0895,"lo2":-89.0444,"dy":0.0017,"dx":0.0017,"nx":28,"ny":28,"refTime":"2025-07-27T03:00:00:Z","depth":0,"parameterNumber":2,"parameterNumberName":"U-component_of_WINDS"},"data":[0,0,0,0,0,0,0,0,0,0,0,0,0,0,0,0,0,0,0,0,0,0,0,0,0,0,0,0,0,0,0,0,0,0,0,0,0,0,0,0,0,0,0,0,0,0,0,0,0,0,0,0,0,0,0,0,0,0,2.8293,2.8293,0,2.8303,2.8303,2.8303,2.8234,2.8232,2.823,2.8228,2.8237,2.8239,2.8241,0,0,0,0,0,0,0,0,0,0,0,0,0,2.8213,2.8215,2.8293,2.8293,2.8293,2.8303,2.8303,2.8303,2.8234,2.8232,2.8229,2.8227,2.8236,2.8239,2.8241,0,0,0,0,0,0,0,0,0,0,0,0,0,2.8238,2.8216,2.8293,2.826,2.8257,2.8303,2.8303,2.8303,2.8235,2.8232,2.8229,2.8226,2.8236,2.8239,2.8242,2.832,0,0,2.8251,2.8252,0,0,0,0,0,0,0,0,2.8237,2.8241,2.8264,2.8262,2.8259,2.8264,2.8278,2.8309,2.8235,2.8243,2.8228,2.8224,2.8248,2.825,2.8259,2.832,2.832,2.8251,2.8253,2.8255,2.8256,0,0,0,0,0,0,0,2.8235,2.824,2.8297,2.8265,2.8262,2.8244,2.8245,2.8284,2.8262,2.8242,2.8237,2.8239,2.8246,2.8256,2.8258,2.832,2.8251,2.8254,2.8256,2.8257,2.8448,2.8451,0,0,0,0,0,0,2.8238,2.8239,2.8296,2.8297,2.8241,2.8248,2.8249,2.8265,2.8261,2.8258,2.8242,2.8236,2.8252,2.8255,2.8258,2.835,2.8255,2.8258,2.8259,2.8445,2.8449,2.8452,0,0,0,0,0,0,2.8237,2.8244,2.8296,2.8267,2.8272,2.8253,2.8272,2.8267,2.8276,2.8261,2.8257,2.8255,2.825,2.8254,2.8305,2.8349,2.8259,2.8262,2.8441,2.8446,2.8451,2.8534,0,0,0,0,0,0,2.8235,2.8244,2.8273,2.8268,2.8274,2.8343,2.8275,2.8269,2.8282,2.8275,2.8273,2.827,2.8248,2.8301,2.8308,2.8352,2.8264,2.8437,2.8443,2.8449,2.8527,2.8541,2.8553,0,0,0,0,0,2.8232,2.8295,2.8275,2.8282,2.831,2.8346,2.8349,2.8323,2.8286,2.8315,2.8306,2.827,2.8344,2.8307,2.8315,2.836,2.8434,2.8442,2.8449,2.8522,2.8539,2.8553,0,0,0,0,0,0,2.8304,2.8294,2.8271,2.8335,2.8342,2.8334,2.837,2.8341,2.8359,2.8351,2.8317,2.8317,2.8375,2.8372,2.8332,2.8436,2.8383,2.8392,2.8435,2.8451,2.8464,2.8463,2.8267,0,0,0,0,0,2.8328,2.8358,2.8347,2.8404,2.8409,2.8389,2.8404,2.8383,2.8389,2.8391,2.8385,2.8392,2.8417,2.8434,2.8456,2.8527,2.8526,2.8562,2.8575,2.8586,2.8594,2.8633,2.8649,2.8476,2.8476,2.8476,0,0,2.8377,2.8375,2.8395,2.8419,2.8422,2.8454,2.8392,2.8428,2.8451,2.8397,2.8445,2.8442,2.8447,2.8509,2.8536,2.8509,2.8642,2.8595,2.8604,2.8606,2.8642,2.8658,2.8673,2.8481,2.848,2.8479,0,0,2.8481,2.8483,2.8531,2.8536,2.8542,2.8529,2.8541,2.8538,2.8534,2.8582,2.8543,2.857,2.8613,2.8619,2.8628,2.8738,2.8706,2.8747,2.8814,2.8852,2.8865,2.8877,2.8917,2.8932,2.8755,2.8755,2.8755,0,2.8541,2.8587,2.856,2.8599,2.8611,2.8564,2.8614,2.862,2.8632,2.8642,2.8612,2.8666,2.8666,2.873,2.8757,2.8766,2.8779,2.8746,2.8866,2.8877,2.8888,2.8926,2.8941,2.876,2.8759,2.8759,2.8758,0,2.8661,2.8694,2.8732,2.8747,2.8764,2.8808,2.8787,2.8807,2.8786,2.8776,2.8827,2.8826,2.8848,2.8862,2.8841,2.8923,2.8906,2.8872,2.8817,2.891,2.8945,2.8959,2.8767,2.8765,2.8764,2.8762,0,0,2.8809,2.881,2.8825,2.8832,2.8837,2.8862,2.8905,2.8927,2.8945,2.8956,2.8991,2.903,2.8999,2.9009,2.8989,2.9022,2.9111,2.8983,2.8983,2.9007,2.9203,2.9229,2.9246,2.909,2.9093,2.9095,2.9202,0,2.8912,2.8985,2.8963,2.9037,2.9068,2.9025,2.9063,2.907,2.9063,2.9088,2.9079,2.9108,2.9064,2.907,2.9101,2.9094,2.915,2.9086,2.9123,2.9124,2.9122,2.9264,2.9291,2.9393,2.9216,2.9218,2.922,0,2.9041,2.9059,2.9137,2.9138,2.915,2.9184,2.9204,2.9229,2.9236,2.9229,2.9242,2.9215,2.9257,2.9204,2.9262,2.9219,2.9233,2.9232,2.9235,2.9237,2.9177,2.927,2.9424,2.944,2.9241,2.9239,2.9238,0,2.9143,2.9187,2.9239,2.9246,2.9249,2.9274,2.9276,2.9281,2.9296,2.9314,2.9323,2.9345,2.9357,2.9375,2.9355,2.9318,2.9417,2.9361,2.9412,2.9413,2.9434,2.9433,2.9593,2.9444,2.9443,2.9443,2.9443,0,2.926,2.931,2.9285,2.9317,2.9371,2.9345,2.94,2.9397,2.9403,2.9434,2.9398,2.9428,2.94,2.9428,2.9413,2.9464,2.9469,2.9465,2.946,2.9468,2.9469,2.9476,2.9469,2.9447,2.9446,2.9446,2.9445,0,2.9382,2.9368,2.9422,2.9421,2.9422,2.9462,2.9461,2.9491,2.9482,2.9522,2.953,2.9516,2.9547,2.953,2.9561,2.9551,2.9618,2.9603,2.9615,2.9611,2.9663,2.9659,2.9834,2.9855,2.9693,2.9694,2.9695,0,2.9458,2.9495,2.9499,2.9518,2.9523,2.9553,2.9569,2.9546,2.9564,2.9577,2.9606,2.9634,2.9655,2.9707,2.97,2.9724,2.971,2.977,2.9713,2.972,2.9711,2.9709,2.9713,2.9781,2.9783,2.9784,2.9785,0,2.9594,2.9586,2.9611,2.9634,2.9655,2.9672,2.9686,2.9703,2.968,2.9703,2.9735,2.9751,2.9785,2.9813,2.9834,2.9836,2.9808,2.9804,2.9817,2.9825,2.983,2.9829,2.9646,2.9799,2.9798,2.9797,2.9796,2.9796,2.9695,2.9727,2.9735,2.9765,2.9773,2.9788,2.9817,2.9812,2.9838,2.9864,2.9849,2.9887,2.9895,2.9921,2.9927,2.9956,2.9932,2.9951,2.9956,2.9961,2.9968,2.9826,2.996,2.9959,2.9959,2.9959,2.9958,0,2.983,2.9834,2.9861,2.9883,2.9907,2.9879,2.9893,2.9915,2.9949,2.996,2.9982,3.0019,3.0048,3.0043,3.0069,3.0094,3.0081,3.0101,3.0099,3.01,2.9988,2.9974,3.0111,3.0111,3.0111,3.0111,3.0111,3.0111,2.9903,2.9955,2.9948,3.0005,3.0008,3.0046,3.0057,3.007,3.0079,3.0123,3.0147,3.0144,3.0149,3.0175,3.02,3.0198,3.0209,3.0235,3.0228,3.0123,3.0108,3.0093,3.008,3.0237,3.0237,3.0337,3.0338,3.0339]},{"header":{"parameterUnit":"m.s-1","parameterCategory":1,"la1":30.2991,"la2":30.254,"lo1":-89.0895,"lo2":-89.0444,"dy":0.0017,"dx":0.0017,"nx":28,"ny":28,"refTime":"2025-07-27T03:00:00:Z","depth":0,"parameterNumber":3,"parameterNumberName":"V-component_of_WINDS"},"data":[0,0,0,0,0,0,0,0,0,0,0,0,0,0,0,0,0,0,0,0,0,0,0,0,0,0,0,0,0,0,0,0,0,0,0,0,0,0,0,0,0,0,0,0,0,0,0,0,0,0,0,0,0,0,0,0,0,0,-3.2234,-3.2235,0,-3.2323,-3.2324,-3.2325,-3.2291,-3.2289,-3.2287,-3.2285,-3.2374,-3.2378,-3.2382,0,0,0,0,0,0,0,0,0,0,0,0,0,-3.2037,-3.2041,-3.2234,-3.2235,-3.2237,-3.2322,-3.2324,-3.2325,-3.2291,-3.2289,-3.2286,-3.2284,-3.2373,-3.2378,-3.2383,0,0,0,0,0,0,0,0,0,0,0,0,0,-3.2124,-3.2042,-3.2234,-3.223,-3.2231,-3.2322,-3.2324,-3.2325,-3.2292,-3.2289,-3.2286,-3.2283,-3.2371,-3.2377,-3.2383,-3.2484,0,0,-3.2403,-3.2406,0,0,0,0,0,0,0,0,-3.2119,-3.2131,-3.223,-3.2231,-3.2231,-3.2293,-3.2287,-3.2378,-3.2293,-3.2269,-3.2285,-3.2281,-3.2349,-3.2357,-3.238,-3.2488,-3.2492,-3.2404,-3.2407,-3.241,-3.2412,0,0,0,0,0,0,0,-3.2113,-3.2127,-3.2269,-3.2231,-3.2232,-3.2224,-3.2233,-3.2304,-3.2325,-3.227,-3.2268,-3.2279,-3.2349,-3.2374,-3.2382,-3.2493,-3.2403,-3.2409,-3.2413,-3.2416,-3.2689,-3.2692,0,0,0,0,0,0,-3.2106,-3.2122,-3.2266,-3.2272,-3.2166,-3.223,-3.224,-3.2276,-3.2324,-3.2328,-3.2282,-3.2277,-3.2365,-3.2375,-3.2385,-3.2507,-3.241,-3.2416,-3.242,-3.2686,-3.269,-3.2694,0,0,0,0,0,0,-3.2102,-3.212,-3.2263,-3.2197,-3.2214,-3.2237,-3.2277,-3.2279,-3.2305,-3.2333,-3.2336,-3.2304,-3.2363,-3.2376,-3.246,-3.251,-3.2419,-3.2425,-3.2682,-3.2687,-3.2692,-3.2751,0,0,0,0,0,0,-3.2097,-3.2118,-3.2157,-3.2198,-3.2218,-3.2336,-3.228,-3.2283,-3.2316,-3.2311,-3.2354,-3.2358,-3.2362,-3.2451,-3.2466,-3.2517,-3.243,-3.2677,-3.2684,-3.269,-3.2744,-3.2757,-3.2768,0,0,0,0,0,-3.209,-3.2169,-3.2159,-3.2176,-3.2266,-3.2339,-3.2351,-3.2353,-3.232,-3.2359,-3.2377,-3.2357,-3.2502,-3.246,-3.2477,-3.253,-3.2674,-3.2682,-3.269,-3.2739,-3.2755,-3.2768,0,0,0,0,0,0,-3.2133,-3.2174,-3.2163,-3.2258,-3.2296,-3.2333,-3.2382,-3.237,-3.2417,-3.241,-3.2411,-3.2421,-3.2508,-3.2527,-3.2479,-3.2631,-3.2583,-3.2594,-3.2615,-3.263,-3.2641,-3.2635,-3.2435,0,0,0,0,0,-3.2153,-3.2209,-3.2243,-3.2323,-3.2343,-3.2359,-3.2391,-3.239,-3.2429,-3.2444,-3.2468,-3.2506,-3.2561,-3.2596,-3.2647,-3.2747,-3.2757,-3.2792,-3.2804,-3.2814,-3.2824,-3.2879,-3.2896,-3.2719,-3.2719,-3.2719,0,0,-3.2196,-3.2226,-3.2261,-3.2333,-3.2361,-3.242,-3.2373,-3.2436,-3.2479,-3.2454,-3.2535,-3.2554,-3.2596,-3.2689,-3.2731,-3.2708,-3.2875,-3.2824,-3.2831,-3.2836,-3.2889,-3.2906,-3.2921,-3.2724,-3.2723,-3.2722,0,0,-3.2304,-3.2332,-3.2403,-3.2433,-3.2477,-3.2488,-3.2506,-3.2546,-3.2558,-3.2639,-3.2622,-3.2673,-3.2766,-3.2798,-3.2826,-3.2948,-3.2932,-3.2965,-3.3027,-3.3081,-3.3095,-3.3107,-3.3152,-3.3167,-3.2974,-3.2975,-3.2975,0,-3.2351,-3.2439,-3.244,-3.2506,-3.2538,-3.2519,-3.2591,-3.262,-3.2679,-3.2702,-3.2675,-3.2793,-3.282,-3.292,-3.295,-3.2973,-3.2993,-3.296,-3.3093,-3.3105,-3.3117,-3.3159,-3.3176,-3.2978,-3.2978,-3.2978,-3.2977,0,-3.2495,-3.2556,-3.2608,-3.2667,-3.2705,-3.2773,-3.2786,-3.2824,-3.282,-3.2834,-3.2918,-3.295,-3.3008,-3.3032,-3.3028,-3.3133,-3.3117,-3.3092,-3.3044,-3.3137,-3.3177,-3.3193,-3.2984,-3.2982,-3.2981,-3.298,0,0,-3.2632,-3.2692,-3.2711,-3.2738,-3.2786,-3.2833,-3.2901,-3.2959,-3.2992,-3.3034,-3.3091,-3.3171,-3.3149,-3.3181,-3.3181,-3.3228,-3.3324,-3.3197,-3.3198,-3.322,-3.3442,-3.3462,-3.348,-3.3314,-3.3317,-3.3319,-3.3439,0,-3.2744,-3.2863,-3.2868,-3.2977,-3.3034,-3.3017,-3.3076,-3.3113,-3.3128,-3.3178,-3.3195,-3.3252,-3.3218,-3.3237,-3.3283,-3.3303,-3.3369,-3.3294,-3.3368,-3.337,-3.3358,-3.3501,-3.3521,-3.3632,-3.3455,-3.3457,-3.3459,0,-3.2891,-3.2938,-3.3053,-3.3095,-3.3119,-3.3172,-3.3226,-3.3275,-3.3316,-3.3324,-3.3361,-3.3354,-3.3424,-3.3374,-3.3471,-3.342,-3.3451,-3.3465,-3.3469,-3.3477,-3.342,-3.3513,-3.3668,-3.3685,-3.3484,-3.3482,-3.348,0,-3.298,-3.3072,-3.3154,-3.3177,-3.3228,-3.3266,-3.3289,-3.3327,-3.3362,-3.3409,-3.3432,-3.3486,-3.3516,-3.3559,-3.3567,-3.353,-3.3665,-3.3615,-3.3674,-3.3674,-3.3703,-3.3701,-3.3866,-3.3722,-3.3722,-3.3721,-3.3721,0,-3.3105,-3.3176,-3.3195,-3.3244,-3.3324,-3.3329,-3.3408,-3.3428,-3.3463,-3.3516,-3.3505,-3.3556,-3.3564,-3.3617,-3.3624,-3.3704,-3.3717,-3.3726,-3.3727,-3.3727,-3.3726,-3.3747,-3.374,-3.3726,-3.3725,-3.3724,-3.3723,0,-3.3218,-3.3233,-3.332,-3.3362,-3.3374,-3.3431,-3.3466,-3.3515,-3.3529,-3.3597,-3.3614,-3.3637,-3.3698,-3.3711,-3.3784,-3.3789,-3.3884,-3.3877,-3.3871,-3.387,-3.3928,-3.3923,-3.4113,-3.4139,-3.3977,-3.3979,-3.398,0,-3.3297,-3.3352,-3.3399,-3.3435,-3.346,-3.3517,-3.3553,-3.356,-3.3598,-3.365,-3.3693,-3.3753,-3.3802,-3.3902,-3.3925,-3.3981,-3.3976,-3.4039,-3.3984,-3.3984,-3.3978,-3.3975,-3.3981,-3.4049,-3.4051,-3.4053,-3.4054,0,-3.3436,-3.3441,-3.3493,-3.3549,-3.3593,-3.3637,-3.3679,-3.3709,-3.3721,-3.3765,-3.3829,-3.3867,-3.3942,-3.4003,-3.406,-3.4083,-3.4071,-3.4071,-3.4087,-3.4089,-3.4083,-3.4088,-3.39,-3.4066,-3.4065,-3.4064,-3.4063,-3.4063,-3.3535,-3.3583,-3.3625,-3.3684,-3.3717,-3.3757,-3.3804,-3.3826,-3.3879,-3.3941,-3.3942,-3.4012,-3.4053,-3.4128,-3.4156,-3.421,-3.4191,-3.4215,-3.4221,-3.4227,-3.4233,-3.4074,-3.4221,-3.422,-3.422,-3.422,-3.4219,0,-3.3674,-3.3701,-3.3755,-3.3815,-3.3862,-3.3847,-3.3893,-3.3933,-3.3995,-3.4035,-3.4084,-3.4158,-3.4217,-3.4246,-3.4304,-3.4343,-3.4339,-3.4358,-3.4356,-3.4362,-3.4246,-3.4226,-3.4361,-3.4361,-3.4361,-3.4361,-3.436,-3.436,-3.3752,-3.3834,-3.3844,-3.3942,-3.3968,-3.4037,-3.4065,-3.4102,-3.4134,-3.4217,-3.4266,-3.4285,-3.432,-3.4382,-3.4436,-3.4443,-3.4466,-3.4488,-3.4492,-3.4384,-3.437,-3.4356,-3.4337,-3.4493,-3.4493,-3.4603,-3.4604,-3.4605]}]]